Weather History for Montgomery, NY

Change the Weather History Date:

Friday, December 7, 2012

  Actual Average (KPOU) Record (KPOU)
Temperature  
Mean Temperature 29 °F 34 °F  
Max Temperature 37 °F 43 °F 60 °F (2001)
Min Temperature 21 °F 25 °F 1 °F (1964)
Degree Days  
Heating Degree Days 36 31  
Month to date heating degree days 208  
Since 1 July heating degree days 1486  
Cooling Degree Days 0 0  
Month to date cooling degree days 0  
Year to date cooling degree days 672  
Moisture  
Dew Point 29 °F    
Average Humidity 88    
Maximum Humidity 100    
Minimum Humidity 75    
Precipitation  
Precipitation 0.16 in 0.12 in 2.12 in (2011)
Month to date precipitation 0.86  
Year to date precipitation 43.86  
Sea Level Pressure  
Sea Level Pressure 30.12 in    
Wind  
Wind Speed 0 mph (North)    
Max Wind Speed 0 mph    
Max Gust Speed -    
Visibility 6 miles    
Events Rain    
T = Trace of Precipitation, MM = Missing Value Source: NWS Daily Summary

Daily Weather History Graph

Daily Weather History Graph

Search for Another Location

Airport:

Trip Planner

Search our weather history database for the weather conditions in past years. The results will help you decide how hot, cold, wet, or windy it might be!

Date:

Astronomy

Dec. 07, 2012 Rise Set
Actual Time 7:10 AM EST 4:27 PM EST
Civil Twilight 6:39 AM EST 4:58 PM EST
Nautical Twilight 6:04 AM EST 5:32 PM EST
Astronomical Twilight 5:30 AM EST 6:06 PM EST
Moon 12:22 AM EST (12/7) 12:26 PM EST (12/7)
Length of Visible Light 10h 19m
Length of Day
9h 16m
Last Quarter, 39% of the Moon is Illuminated
Dec 7
Last Quarter
Dec 13
New
Dec 20
First Quarter
Dec 28
Full
Jan 4
Last Quarter

Hourly Weather History & Observations

Time (EST) Temp. Dew Point Humidity Pressure Visibility Wind Dir Wind Speed Gust Speed Precip Events Conditions
12:54 AM 21.9 °F 18.0 °F 85% 30.27 in 10.0 mi Calm Calm - N/A   Clear
1:54 AM 21.9 °F 19.0 °F 89% 30.26 in 10.0 mi Calm Calm - N/A   Clear
2:54 AM 23.0 °F 19.0 °F 85% 30.24 in 10.0 mi Calm Calm - N/A   Clear
3:54 AM 21.9 °F 19.0 °F 89% 30.23 in 10.0 mi Calm Calm - N/A   Clear
4:54 AM 21.9 °F 19.0 °F 89% 30.21 in 10.0 mi Calm Calm - N/A   Clear
5:54 AM 21.9 °F 19.0 °F 89% 30.21 in 10.0 mi Calm Calm - N/A   Clear
6:24 AM 21.2 °F 19.4 °F 93% 30.20 in 10.0 mi Calm Calm - N/A   Mostly Cloudy
6:54 AM 23.0 °F 19.0 °F 85% 30.21 in 10.0 mi Calm Calm - N/A   Scattered Clouds
7:54 AM 25.0 °F 21.0 °F 85% 30.20 in 10.0 mi Calm Calm - N/A   Mostly Cloudy
8:45 AM 26.6 °F 23.0 °F 86% 30.19 in 10.0 mi Calm Calm - N/A   Overcast
8:54 AM 28.0 °F 24.1 °F 85% 30.21 in 10.0 mi Calm Calm - N/A   Overcast
9:29 AM 30.2 °F 24.8 °F 80% 30.18 in 10.0 mi Calm Calm - 0.00 in   Overcast
9:54 AM 32.0 °F 26.1 °F 79% 30.20 in 10.0 mi Calm Calm - 0.00 in   Overcast
10:19 AM 33.8 °F 26.6 °F 75% 30.18 in 10.0 mi Calm Calm - N/A   Overcast
10:49 AM 35.6 °F 28.4 °F 75% 30.16 in 10.0 mi Calm Calm - 0.00 in Rain Light Rain
10:54 AM 35.1 °F 28.9 °F 78% 30.17 in 10.0 mi Calm Calm - 0.00 in Rain Light Rain
11:54 AM 35.1 °F 30.9 °F 85% 30.16 in 6.0 mi Calm Calm - 0.02 in Rain Light Rain
12:10 PM 35.6 °F 30.2 °F 81% 30.14 in 3.0 mi Calm Calm - 0.02 in Rain Light Rain
12:24 PM 35.6 °F 30.2 °F 81% 30.13 in 4.0 mi Calm Calm - 0.03 in Rain Light Rain
12:35 PM 33.8 °F 30.2 °F 87% 30.12 in 6.0 mi Calm Calm - 0.04 in Rain Light Rain
12:54 PM 35.1 °F 30.9 °F 85% 30.12 in 7.0 mi Calm Calm - 0.04 in Rain Light Rain
1:05 PM 35.6 °F 30.2 °F 81% 30.11 in 7.0 mi Calm Calm - 0.00 in Rain Light Rain
1:29 PM 35.6 °F 32.0 °F 87% 30.10 in 6.0 mi Calm Calm - 0.01 in Rain Light Rain
1:54 PM 35.1 °F 32.0 °F 89% 30.11 in 4.0 mi Calm Calm - 0.01 in Rain Light Rain
2:50 PM 35.6 °F 33.8 °F 93% 30.08 in 5.0 mi Calm Calm - 0.02 in Rain Light Rain
2:54 PM 36.0 °F 33.1 °F 89% 30.09 in 5.0 mi Calm Calm - 0.02 in Rain Light Rain
3:32 PM 35.6 °F 33.8 °F 93% 30.07 in 2.5 mi Calm Calm - 0.00 in Rain Light Rain
3:54 PM 36.0 °F 33.1 °F 89% 30.09 in 2.5 mi Calm Calm - 0.02 in Rain Light Rain
4:01 PM 35.6 °F 33.8 °F 93% 30.07 in 2.5 mi Calm Calm - 0.01 in Rain Light Rain
4:25 PM 35.6 °F 33.8 °F 93% 30.06 in 3.0 mi Calm Calm - 0.02 in Rain Light Rain
4:54 PM 35.1 °F 33.1 °F 92% 30.08 in 4.0 mi Calm Calm - 0.02 in Rain Light Rain
5:54 PM 36.0 °F 34.0 °F 93% 30.07 in 4.0 mi Calm Calm - 0.01 in Rain Light Rain
6:01 PM 35.6 °F 33.8 °F 93% 30.05 in 4.0 mi Calm Calm - 0.00 in Rain Light Rain
6:54 PM 36.0 °F 34.0 °F 93% 30.07 in 4.0 mi Calm Calm - 0.00 in Rain Light Rain
7:38 PM 35.6 °F 33.8 °F 93% 30.07 in 2.5 mi Calm Calm - 0.02 in Rain Light Rain
7:50 PM 35.6 °F 33.8 °F 93% 30.06 in 2.5 mi Calm Calm - 0.03 in Rain Light Rain
8:05 PM 35.6 °F 33.8 °F 93% 30.06 in 3.0 mi Calm Calm - 0.00 in Rain Light Rain
8:54 PM 36.0 °F 34.0 °F 93% 30.07 in 5.0 mi Calm Calm - 0.01 in   Overcast
9:15 PM 35.6 °F 33.8 °F 93% 30.06 in 4.0 mi Calm Calm - 0.00 in Rain Light Rain
9:29 PM 35.6 °F 33.8 °F 93% 30.05 in 3.0 mi Calm Calm - 0.00 in Rain Light Rain
9:54 PM 36.0 °F 34.0 °F 93% 30.06 in 3.0 mi Calm Calm - 0.00 in Rain Light Rain
10:54 PM 36.0 °F 34.0 °F 93% 30.04 in 2.5 mi Calm Calm - 0.01 in Rain Light Rain
11:03 PM 35.6 °F 35.6 °F 100% 30.03 in 3.0 mi Calm Calm - 0.00 in Rain Light Rain
11:44 PM 37.4 °F 35.6 °F 93% 30.02 in 4.0 mi Calm Calm - 0.00 in   Overcast
11:54 PM 37.0 °F 35.1 °F 93% 30.03 in 4.0 mi Calm Calm - 0.00 in   Overcast